Regional Weather Roundup
Issued by NWS

Home | Current Version | Previous Version | Graphics & Text | Print | Product List | Glossary On
Versions: 1 2 3 4 5 6 7 8 9 10 11 12 13 14 15 16 17 18 19 20 21 22 23 24 25 26 27 28 29 30 31 32 33 34 35 36 37 38 39 40 41 42 43 44 45 46 47 48 49 50
000
ASUS43 KLMK 301410
RWRKY
KENTUCKY REGIONAL WEATHER ROUNDUP
NATIONAL WEATHER SERVICE LOUISVILLE KY
1000 AM EDT THU OCT 30 2014

NOTE "FAIR" INDICATES FEW OR NO CLOUDS BELOW 12,000 FEET
WITH NO SIGNIFICANT WEATHER AND/OR OBSTRUCTIONS TO VISIBILITY.

KYZ001>023-026-027-061>063-070>075-301500-
WESTERN AND SOUTH CENTRAL KENTUCKY

CITY           SKY/WX    TMP DP  RH WIND       PRES   REMARKS
PADUCAH        SUNNY     45  41  86 CALM      30.18R
HENDERSON      SUNNY     45  39  81 CALM      30.18S
OWENSBORO      SUNNY     43  40  89 CALM      30.19R
HOPKINSVILLE   SUNNY     44  44 100 NE2       30.17S
BOWLING GREEN  SUNNY     45  40  82 CALM      30.19R
GLASGOW        SUNNY     45  39  78 CALM      30.18R
$$

KYZ024-025-028>034-038-045-046-053-301500-
NORTH CENTRAL KENTUCKY

CITY           SKY/WX    TMP DP  RH WIND       PRES   REMARKS
LOUISVILLE/SDF SUNNY     47  35  63 VRB3      30.18S
LOUISVILLE/LOU SUNNY     45  38  76 CALM      30.19S
FORT KNOX      SUNNY     44  38  78 NE3       30.16S
$$

KYZ035>037-039>044-047>052-055>060-089>105-301500-
NORTHEAST KENTUCKY

CITY           SKY/WX    TMP DP  RH WIND       PRES   REMARKS
LEXINGTON      CLOUDY    45  38  76 CALM      30.17S
COVINGTON      SUNNY     46  36  68 N5        30.17R
FRANKFORT      CLOUDY    41  37  86 CALM      30.17R
$$

KYZ054-064>069-076>088-106>120-301500-
SOUTHEAST KENTUCKY

CITY           SKY/WX    TMP DP  RH WIND       PRES   REMARKS
JACKSON        SUNNY     46  36  68 CALM      30.16R
LONDON         SUNNY     47  38  71 CALM      30.16R
SOMERSET       SUNNY     43  36  75 CALM      30.18S
MIDDLESBORO    FOG       37  37 100 CALM      30.16S VSB<1/4
MONTICELLO     SUNNY     43  40  89 CALM      30.19R
$$




USA.gov is the U.S. government's official web portal to all federal, state and local government web resources and services.